1487613600.69,1385,13.19,72934.3,-6.75,-33.95,-33.55,0,*67
1487613601.93,1386,13.19,72932.0,-6.73,-34.35,-33.83,0,*64
1487613603.13,1387,13.19,72934.3,-6.73,-34.25,-33.83,0,*64
1487613604.36,1388,13.19,72938.3,-6.73,-34.35,-33.83,0,*6A
1487613605.59,1389,13.19,72930.8,-6.73,-34.35,-33.83,0,*6B
1487613606.82,1390,13.19,72930.3,-6.69,-34.35,-33.83,0,*68
1487613608.08,1391,13.19,72932.8,-6.73,-34.35,-33.89,0,*68
1487613609.31,1392,13.19,72932.5,-6.73,-34.41,-34.01,0,*6F
1487613610.55,1393,13.19,72926.3,-6.73,-34.41,-34.01,0,*6E
1487613611.81,1394,13.19,72936.0,-6.73,-34.35,-33.89,0,*6D
1487613613.07,1395,13.19,72926.0,-6.73,-34.35,-34.01,0,*6B
1487613614.3,1396,13.19,72928.0,-6.73,-34.41,-34.01,0,*6B
1487613615.51,1397,13.19,72934.5,-6.69,-34.47,-34.07,0,*61
1487613616.74,1398,13.19,72938.3,-6.73,-34.59,-34.19,0,*65
1487613617.98,1399,13.19,72930.5,-6.73,-34.41,-34.01,0,*64
1487613619.21,1400,13.19,72930.3,-6.73,-34.41,-33.89,0,*64
1487613620.42,1401,13.19,72932.5,-6.69,-34.47,-34.07,0,*69
1487613621.68,1402,13.19,72934.0,-6.73,-34.65,-34.19,0,*6E
1487613622.89,1403,13.19,72936.0,-6.69,-34.59,-34.07,0,*64
1487613624.1,1404,13.19,72932.5,-6.73,-34.59,-34.07,0,*68
1487613625.33,1405,13.19,72930.0,-6.73,-34.41,-33.89,0,*61
1487613626.53,1406,13.19,72930.5,-6.73,-34.25,-33.83,0,*6A
1487613627.79,1407,13.19,72930.3,-6.73,-34.35,-33.89,0,*60
1487613629.03,1408,13.19,72932.8,-6.73,-34.47,-34.01,0,*6D
1487613630.26,1409,13.19,72932.8,-6.69,-34.41,-33.89,0,*66
1487613631.49,1410,13.19,72934.0,-6.73,-34.41,-33.89,0,*65
1487613632.73,1411,13.19,72934.5,-6.73,-34.41,-34.01,0,*63
1487613633.93,1412,13.19,72932.8,-6.73,-34.41,-34.07,0,*66
1487613635.16,1413,13.19,72932.3,-6.75,-34.47,-34.25,0,*67
1487613636.42,1414,13.19,72932.5,-6.75,-34.65,-34.13,0,*65
1487613637.68,1415,13.19,72940.5,-6.75,-34.53,-34.13,0,*61
1487613638.92,1416,13.19,72942.3,-6.75,-34.47,-33.95,0,*6E
1487613640.2,1417,13.19,72942.3,-6.75,-34.31,-33.89,0,*63
1487613641.43,1418,13.19,72940.8,-6.75,-34.41,-33.95,0,*66
1487613642.66,1419,13.19,72940.0,-6.75,-34.41,-33.95,0,*67
1487613643.88,1420,13.19,72936.5,-6.75,-34.41,-33.95,0,*6D
1487613645.14,1421,13.19,72942.8,-6.75,-34.53,-34.07,0,*63
1487613646.35,1422,13.19,72940.8,-6.77,-34.47,-34.07,0,*67
1487613647.56,1423,13.19,72936.5,-6.77,-34.47,-34.13,0,*63
1487613648.82,1424,13.19,72930.5,-6.75,-34.53,-34.13,0,*63
1487613650.03,1425,13.19,72928.0,-6.77,-34.47,-34.25,0,*60
1487613651.28,1426,13.19,72926.0,-6.77,-34.31,-33.89,0,*63
1487613652.54,1427,13.19,72930.3,-6.75,-34.53,-34.13,0,*60
1487613653.78,1428,13.19,72934.0,-6.77,-34.65,-34.13,0,*68
1487613654.99,1429,13.19,72932.3,-6.77,-34.47,-33.95,0,*60
1487613656.19,1430,13.19,72932.3,-6.77,-34.47,-33.95,0,*68
1487613657.45,1431,13.19,72922.3,-6.75,-34.41,-33.89,0,*60
1487613658.68,1432,13.19,72932.3,-6.77,-34.13,-33.61,0,*60
1487613659.94,1433,13.19,72934.8,-6.77,-33.73,-33.31,0,*65
1487613661.17,1434,13.19,72932.8,-6.75,-33.95,-33.55,0,*6A
1487613662.37,1435,13.19,72932.8,-6.77,-34.07,-33.55,0,*65
1487613663.63,1436,13.19,72932.3,-6.75,-34.13,-33.73,0,*65
1487613664.89,1437,13.19,72936.3,-6.75,-34.13,-33.73,0,*64
1487613666.18,1438,13.19,72928.0,-6.75,-34.31,-33.89,0,*6E
1487613667.43,1439,13.19,72928.3,-6.75,-34.25,-33.73,0,*6F
1487613668.69,1440,13.19,72936.0,-6.75,-34.41,-33.89,0,*66
1487613669.94,1441,13.19,72934.3,-6.73,-34.19,-33.73,0,*69
1487613671.16,1442,13.19,72934.3,-6.73,-34.07,-33.67,0,*60
1487613672.39,1443,13.19,72932.5,-6.77,-34.25,-33.77,0,*64
1487613673.65,1444,13.19,72932.0,-6.75,-34.13,-33.73,0,*60
1487613674.93,1445,13.19,72938.3,-6.75,-34.31,-33.89,0,*64
1487613676.16,1446,13.19,72936.5,-6.75,-34.41,-33.95,0,*6D
1487613677.44,1447,13.19,72936.3,-6.75,-34.31,-33.89,0,*66
1487613678.69,1448,13.19,72936.8,-6.75,-34.13,-33.61,0,*6F
1487613679.98,1449,13.19,72938.3,-6.75,-33.89,-33.43,0,*6A
1487613681.21,1450,13.19,72934.8,-6.77,-33.95,-33.43,0,*6D
1487613682.47,1451,13.19,72938.0,-6.75,-34.13,-33.89,0,*61
1487613683.75,1452,13.19,72938.3,-6.75,-34.31,-33.89,0,*62
1487613685.01,1453,13.19,72938.3,-6.73,-34.35,-33.89,0,*61
1487613686.24,1454,13.19,72934.5,-6.75,-34.41,-34.07,0,*62
1487613687.47,1455,13.19,72936.3,-6.75,-34.47,-33.95,0,*69
1487613688.7,1456,13.19,72934.3,-6.75,-34.41,-33.95,0,*6C
1487613689.96,1457,13.19,72938.0,-6.75,-34.53,-34.07,0,*62
1487613691.17,1458,13.19,72932.0,-6.77,-34.47,-34.07,0,*6A
1487613692.38,1459,13.19,72934.5,-6.77,-34.47,-33.95,0,*67
1487613693.58,1460,13.19,72932.5,-6.77,-34.41,-33.95,0,*6B
1487613694.81,1461,13.19,72938.0,-6.75,-34.41,-33.95,0,*68
1487613696.04,1462,13.19,72934.3,-6.75,-34.41,-33.95,0,*6B
1487613697.26,1463,13.19,72928.5,-6.75,-34.41,-33.95,0,*6A
1487613698.49,1464,13.19,72934.5,-6.77,-34.07,-33.61,0,*66
1487613699.72,1465,13.19,72934.0,-6.77,-34.07,-33.61,0,*67
1487613700.93,1466,13.19,72934.3,-6.77,-34.07,-33.55,0,*63
1487613702.18,1467,13.19,72932.3,-6.75,-34.25,-33.77,0,*60
1487613703.41,1468,13.19,72936.3,-6.77,-34.25,-33.73,0,*69
1487613704.64,1469,13.19,72932.5,-6.75,-34.41,-33.95,0,*60
1487613705.87,1470,13.19,72936.8,-6.75,-34.41,-33.95,0,*68
1487613707.09,1471,13.19,72932.8,-6.75,-34.41,-33.95,0,*69
1487613708.29,1472,13.19,72934.8,-6.77,-34.41,-33.95,0,*68
1487613709.5,1473,13.19,72938.5,-6.77,-34.41,-34.07,0,*65
1487613710.73,1474,13.19,72936.0,-6.75,-34.47,-34.07,0,*66
1487613711.94,1475,13.19,72936.3,-6.77,-34.47,-33.95,0,*69
1487613713.17,1476,13.19,72936.5,-6.77,-34.53,-34.07,0,*63
1487613714.37,1477,13.19,72932.0,-6.77,-34.41,-33.95,0,*6D
1487613715.57,1478,13.19,72936.5,-6.77,-34.41,-33.95,0,*62
1487613716.83,1479,13.19,72936.0,-6.77,-34.31,-33.89,0,*69
1487613718.06,1480,13.19,72930.0,-6.77,-34.07,-33.61,0,*6C
1487613719.3,1481,13.19,72932.3,-6.77,-34.07,-33.43,0,*6D
1487613720.53,1482,13.19,72932.8,-6.77,-33.77,-33.37,0,*6D
1487613721.77,1483,13.19,72934.5,-6.77,-33.73,-33.37,0,*68
1487613723.0,1484,13.19,72932.5,-6.77,-34.07,-33.73,0,*6B
1487613724.23,1485,13.19,72928.8,-6.77,-34.13,-33.61,0,*6C
1487613725.49,1486,13.19,72926.5,-6.77,-33.77,-33.31,0,*6F
1487613726.74,1487,13.19,72920.0,-6.75,-33.37,-32.97,0,*65
1487613727.98,1488,13.19,72916.5,-6.75,-33.21,-32.69,0,*6C
1487613729.22,1489,13.19,72920.5,-6.75,-33.03,-32.51,0,*66
1487613730.48,1490,13.19,72916.0,-6.73,-33.27,-32.79,0,*64
1487613731.73,1491,13.19,72914.3,-6.73,-32.97,-32.45,0,*60
1487613732.94,1492,13.19,72922.8,-6.73,-32.91,-32.39,0,*6E
1487613734.2,1493,13.19,72924.5,-6.69,-33.31,-32.79,0,*6B
1487613735.46,1494,13.19,72916.5,-6.69,-33.27,-32.75,0,*67
1487613736.71,1495,13.19,72918.8,-6.69,-33.31,-32.97,0,*6D
1487613737.94,1496,13.19,72928.0,-6.69,-33.31,-32.91,0,*68
1487613739.23,1497,13.19,72924.5,-6.67,-33.31,-32.85,0,*62
1487613740.49,1498,13.19,72924.3,-6.67,-33.67,-33.27,0,*67
1487613741.78,1499,13.19,72924.8,-6.67,-33.77,-33.43,0,*65
1487613743.04,1500,13.19,72928.3,-6.67,-33.67,-33.27,0,*67
1487613744.32,1501,13.19,72930.3,-6.67,-33.77,-33.31,0,*60
1487613745.57,1502,13.19,72926.0,-6.67,-33.95,-33.61,0,*6A
1487613746.86,1503,13.19,72926.5,-6.67,-34.01,-33.49,0,*6B
1487613748.11,1504,13.19,72934.3,-6.67,-33.95,-33.49,0,*66
1487613749.36,1505,13.19,72936.0,-6.67,-33.95,-33.61,0,*6D
1487613750.6,1506,13.19,72934.5,-6.67,-34.13,-33.67,0,*61
1487613751.83,1507,13.19,72930.3,-6.67,-34.13,-33.67,0,*60
1487613753.07,1508,13.19,72926.5,-6.67,-34.13,-33.67,0,*6F
1487613754.28,1509,13.19,72932.5,-6.69,-34.07,-33.67,0,*65
1487613755.52,1510,13.19,72922.8,-6.69,-34.01,-33.67,0,*6B
1487613756.75,1511,13.19,72912.8,-6.69,-33.67,-33.27,0,*69
1487613758.01,1512,13.19,72920.5,-6.67,-33.49,-32.91,0,*64
1487613759.24,1513,13.19,72916.0,-6.69,-33.37,-32.97,0,*64
1487613760.5,1514,13.19,72920.5,-6.69,-33.49,-32.97,0,*6A
1487613761.78,1515,13.19,72922.5,-6.67,-33.31,-32.85,0,*69
1487613763.01,1516,13.19,72922.0,-6.65,-33.43,-33.03,0,*62
1487613764.24,1517,13.19,72936.0,-6.65,-33.43,-33.03,0,*63
1487613765.52,1518,13.19,72924.0,-6.67,-33.31,-32.85,0,*64
1487613766.76,1519,13.19,72918.5,-6.65,-33.31,-32.91,0,*62
1487613768.02,1520,13.19,72918.3,-6.65,-33.31,-32.85,0,*6D
1487613769.3,1521,13.19,72922.0,-6.67,-33.31,-32.85,0,*6E
1487613770.53,1522,13.19,72916.0,-6.65,-33.31,-32.91,0,*6A
1487613771.81,1523,13.19,72930.8,-6.63,-33.27,-32.97,0,*6C
1487613773.06,1524,13.19,72930.3,-6.63,-33.43,-33.15,0,*62
1487613774.31,1525,13.19,72930.3,-6.63,-33.43,-33.03,0,*64
1487613775.57,1526,13.19,72928.5,-6.63,-33.77,-33.37,0,*67
1487613776.85,1527,13.19,72930.3,-6.63,-33.89,-33.43,0,*64
1487613778.13,1528,13.19,72932.3,-6.63,-33.61,-33.27,0,*6F
1487613779.37,1529,13.19,72938.8,-6.63,-33.89,-33.55,0,*6D
1487613780.62,1530,13.19,72928.5,-6.63,-33.95,-33.61,0,*6F
1487613781.85,1531,13.19,72934.5,-6.63,-34.07,-33.55,0,*65
1487613783.13,1532,13.19,72932.0,-6.63,-33.77,-33.27,0,*63
1487613784.42,1533,13.19,72924.8,-6.63,-33.73,-33.27,0,*66
1487613785.67,1534,13.19,72926.8,-6.63,-33.89,-33.55,0,*61
1487613786.92,1535,13.19,72930.5,-6.65,-34.19,-33.77,0,*68
1487613788.15,1536,13.19,72934.3,-6.65,-34.19,-33.83,0,*60
1487613789.38,1537,13.19,72934.5,-6.65,-34.19,-33.83,0,*61
1487613790.6,1538,13.19,72932.8,-6.65,-33.95,-33.61,0,*61
1487613791.89,1539,13.19,72934.8,-6.67,-33.77,-33.31,0,*6B
1487613793.12,1540,13.19,72934.3,-6.65,-33.49,-33.03,0,*6B
1487613794.35,1541,13.19,72916.0,-6.65,-33.31,-32.91,0,*6F
1487613795.63,1542,13.19,72926.0,-6.67,-33.43,-32.85,0,*6E
1487613796.89,1543,13.19,72930.3,-6.65,-33.31,-32.85,0,*68
1487613798.15,1544,13.19,72932.8,-6.63,-33.21,-32.63,0,*60
1487613799.38,1545,13.19,72930.5,-6.61,-32.69,-32.19,0,*63
1487613800.61,1546,13.19,72916.8,-6.61,-32.85,-32.35,0,*6C
1487613801.86,1547,13.19,72916.5,-6.59,-32.79,-32.29,0,*68
1487613803.11,1548,13.19,72922.3,-6.61,-32.85,-32.29,0,*6F
1487613804.37,1549,13.19,72934.3,-6.59,-32.97,-32.45,0,*6C
1487613805.62,1550,13.19,72922.0,-6.59,-32.97,-32.45,0,*64
1487613806.85,1551,13.19,72926.8,-6.59,-33.15,-32.63,0,*6A
1487613808.08,1552,13.19,72930.8,-6.59,-33.21,-32.79,0,*65
1487613809.34,1553,13.19,72934.3,-6.57,-33.37,-32.97,0,*6D
1487613810.55,1554,13.19,72930.0,-6.59,-33.67,-33.15,0,*6A
1487613811.76,1555,13.19,72928.0,-6.59,-33.67,-33.21,0,*6C
1487613812.99,1556,13.19,72936.3,-6.57,-33.67,-33.21,0,*61
1487613814.23,1557,13.19,72938.3,-6.59,-33.67,-33.31,0,*6F
1487613815.47,1558,13.19,72936.5,-6.59,-33.73,-33.37,0,*63
1487613816.73,1559,13.19,72934.5,-6.59,-34.01,-33.49,0,*69
1487613817.98,1560,13.19,72938.8,-6.59,-33.89,-33.49,0,*64
1487613819.18,1561,13.19,72934.5,-6.61,-33.95,-33.55,0,*6E
1487613820.43,1562,13.19,72930.0,-6.61,-33.61,-33.27,0,*63
1487613821.68,1563,13.19,72928.0,-6.59,-33.89,-33.49,0,*67
1487613822.89,1564,13.19,72928.0,-6.61,-34.07,-33.55,0,*67
1487613824.14,1565,13.19,72930.3,-6.61,-33.77,-33.27,0,*63
1487613825.4,1566,13.19,72936.0,-6.63,-34.07,-33.61,0,*60
1487613826.65,1567,13.19,72936.5,-6.61,-33.89,-33.27,0,*60
1487613827.91,1568,13.19,72934.5,-6.61,-33.73,-33.27,0,*6A
1487613829.14,1569,13.19,72926.3,-6.61,-33.77,-33.37,0,*6E
1487613830.34,1570,13.19,72936.8,-6.61,-33.55,-33.15,0,*66
1487613831.56,1571,13.19,72932.5,-6.61,-33.43,-33.15,0,*60
1487613832.79,1572,13.19,72930.5,-6.61,-33.27,-32.69,0,*6B
1487613834.02,1573,13.19,72922.0,-6.61,-32.97,-32.51,0,*6B
1487613835.27,1574,13.19,72932.5,-6.61,-32.97,-32.45,0,*69
1487613836.55,1575,13.19,72932.5,-6.57,-32.75,-32.29,0,*6B
1487613837.83,1576,13.19,72918.5,-6.57,-32.97,-32.45,0,*6E
1487613839.11,1577,13.19,72928.5,-6.57,-32.97,-32.45,0,*6F
1487613840.38,1578,13.19,72924.0,-6.57,-33.09,-32.39,0,*6D
1487613841.64,1579,13.19,72936.0,-6.57,-32.75,-32.13,0,*6E
1487613842.87,1580,13.19,72932.5,-6.57,-32.91,-32.39,0,*6A
1487613844.07,1581,13.19,72926.0,-6.55,-32.91,-32.35,0,*65
1487613845.3,1582,13.19,72922.3,-6.55,-32.75,-32.35,0,*6C
1487613846.54,1583,13.19,72918.0,-6.55,-32.75,-32.23,0,*6A
1487613847.79,1584,13.19,72910.0,-6.53,-32.75,-32.23,0,*6B
1487613849.05,1585,13.19,72918.3,-6.53,-32.57,-32.19,0,*63
1487613850.3,1586,13.19,72928.5,-6.53,-32.75,-32.23,0,*69
1487613851.53,1587,13.19,72932.3,-6.51,-32.63,-32.13,0,*6E
1487613852.76,1588,13.19,72924.3,-6.51,-32.51,-31.95,0,*6D
1487613853.99,1589,13.19,72926.3,-6.47,-32.39,-31.95,0,*65
1487613855.22,1590,13.19,72924.8,-6.47,-32.57,-32.07,0,*6D
1487613856.47,1591,13.19,72926.3,-6.47,-32.45,-31.95,0,*67
1487613857.73,1592,13.19,72920.8,-6.45,-32.57,-32.07,0,*6D
1487613858.99,1593,13.19,72932.5,-6.45,-32.57,-31.95,0,*64
1487613860.24,1594,13.19,72924.3,-6.43,-32.45,-31.95,0,*66
1487613861.52,1595,13.19,72930.0,-6.45,-32.45,-31.95,0,*61
1487613862.77,1596,13.19,72934.0,-6.43,-32.45,-31.95,0,*64
1487613864.02,1597,13.19,72934.5,-6.43,-32.45,-31.95,0,*65
1487613865.22,1598,13.19,72928.0,-6.39,-32.39,-32.01,0,*62
1487613866.45,1599,13.19,72926.5,-6.39,-32.39,-31.91,0,*69
1487613867.65,1600,13.19,72926.3,-6.39,-32.39,-32.01,0,*60
1487613868.88,1601,13.19,72930.3,-6.39,-32.69,-32.19,0,*6D
1487613870.14,1602,13.19,72924.8,-6.41,-32.75,-32.23,0,*65
1487613871.34,1603,13.19,72932.8,-6.39,-32.91,-32.39,0,*6A
1487613872.56,1604,13.19,72932.3,-6.39,-33.09,-32.57,0,*65
1487613873.79,1605,13.19,72930.0,-6.37,-33.03,-32.51,0,*66
1487613875.02,1606,13.19,72930.3,-6.39,-32.97,-32.51,0,*67
1487613876.25,1607,13.19,72922.3,-6.39,-33.09,-32.69,0,*6B
1487613877.48,1608,13.19,72918.5,-6.39,-32.97,-32.51,0,*69
1487613878.76,1609,13.19,72914.5,-6.37,-32.79,-32.29,0,*69
1487613880.03,1610,13.19,72902.0,-6.37,-32.63,-32.19,0,*69
1487613881.28,1611,13.19,72908.8,-6.37,-32.63,-32.13,0,*62
1487613882.53,1612,13.19,72924.5,-6.35,-32.85,-32.45,0,*68
1487613883.76,1613,13.19,72922.8,-6.35,-33.15,-32.63,0,*65
1487613884.98,1614,13.19,72914.0,-6.35,-32.91,-32.45,0,*6B
1487613886.22,1615,13.19,72906.3,-6.37,-32.91,-32.45,0,*68
1487613887.48,1616,13.19,72914.3,-6.37,-33.37,-32.85,0,*6A
1487613888.72,1617,13.19,72922.5,-6.35,-33.37,-32.85,0,*69
1487613889.96,1618,13.19,72914.5,-6.37,-33.55,-33.09,0,*65
1487613891.23,1619,13.19,72912.8,-6.37,-33.61,-33.09,0,*63
1487613892.5,1620,13.19,72918.3,-6.37,-33.61,-33.09,0,*69
1487613893.72,1621,13.19,72920.0,-6.37,-33.55,-33.21,0,*65
1487613895.0,1622,13.19,72922.3,-6.37,-33.73,-33.09,0,*68
1487613896.26,1623,13.19,72918.3,-6.37,-33.73,-33.37,0,*64
1487613897.48,1624,13.19,72920.8,-6.39,-33.43,-33.21,0,*69
1487613898.73,1625,13.19,72922.8,-6.37,-33.61,-33.21,0,*66
1487613899.98,1626,13.19,72920.3,-6.39,-33.61,-33.27,0,*6D
1487613901.21,1627,13.19,72926.0,-6.39,-33.83,-33.31,0,*67
1487613902.44,1628,13.19,72928.3,-6.39,-33.67,-33.31,0,*62
1487613903.65,1629,13.19,72930.5,-6.39,-33.67,-33.15,0,*65
1487613904.92,1630,13.19,72932.8,-6.41,-33.31,-32.97,0,*6A
1487613906.15,1631,13.19,72934.5,-6.39,-33.27,-32.91,0,*65
1487613907.38,1632,13.19,72930.5,-6.39,-33.15,-32.75,0,*6D
1487613908.64,1633,13.19,72926.8,-6.39,-33.09,-32.75,0,*61
1487613909.89,1634,13.19,72930.0,-6.39,-33.27,-32.75,0,*6A
1487613911.12,1635,13.19,72934.3,-6.39,-33.09,-32.57,0,*67
1487613912.31,1636,13.19,72930.8,-6.39,-32.91,-32.57,0,*64
1487613913.51,1637,13.19,72928.3,-6.39,-32.91,-32.35,0,*61
1487613914.74,1638,13.19,72926.5,-6.39,-32.85,-32.39,0,*67
1487613915.97,1639,13.19,72926.5,-6.37,-33.21,-32.69,0,*62
1487613917.19,1640,13.19,72924.0,-6.37,-33.21,-32.69,0,*6C
1487613918.47,1641,13.19,72928.8,-6.37,-33.09,-32.63,0,*6D
1487613919.68,1642,13.19,72930.3,-6.35,-33.21,-32.69,0,*6C
1487613920.9,1643,13.19,72926.8,-6.37,-33.21,-32.69,0,*6F
1487613922.16,1644,13.19,72932.0,-6.37,-33.37,-32.85,0,*6D
1487613923.41,1645,13.19,72936.3,-6.37,-33.37,-32.85,0,*6C
1487613924.64,1646,13.19,72936.3,-6.37,-33.37,-33.03,0,*60
1487613925.91,1647,13.19,72934.5,-6.37,-33.27,-32.79,0,*6C
1487613927.16,1648,13.19,72934.0,-6.37,-33.27,-32.91,0,*65
1487613928.41,1649,13.19,72932.8,-6.37,-33.43,-33.03,0,*6C
1487613929.66,1650,13.19,72928.8,-6.37,-33.27,-32.91,0,*6C
1487613930.91,1651,13.19,72938.3,-6.37,-33.21,-32.85,0,*6E
1487613932.16,1652,13.19,72932.5,-6.37,-33.03,-32.79,0,*6E
1487613933.39,1653,13.19,72930.5,-6.37,-32.91,-32.51,0,*6F
1487613934.63,1654,13.19,72936.8,-6.37,-33.03,-32.63,0,*63
1487613935.89,1655,13.19,72932.5,-6.35,-33.31,-32.79,0,*6A
1487613937.16,1656,13.19,72934.3,-6.37,-33.43,-33.09,0,*68
1487613938.41,1657,13.19,72926.8,-6.37,-33.27,-32.91,0,*6B
1487613939.63,1658,13.19,72928.3,-6.37,-33.21,-32.91,0,*62
1487613940.88,1659,13.19,72920.5,-6.37,-33.27,-32.91,0,*65
1487613942.11,1660,13.19,72926.3,-6.35,-33.21,-32.97,0,*6D
1487613943.34,1661,13.19,72930.8,-6.37,-33.37,-32.91,0,*6F
1487613944.59,1662,13.19,72928.0,-6.35,-33.31,-32.97,0,*6E
1487613945.84,1663,13.19,72936.3,-6.37,-33.21,-32.85,0,*6F
1487613947.07,1664,13.19,72934.3,-6.35,-33.21,-32.79,0,*69
1487613948.3,1665,13.19,72932.8,-6.35,-33.37,-32.97,0,*6F
1487613949.55,1666,13.19,72924.5,-6.35,-33.31,-32.85,0,*69
1487613950.78,1667,13.19,72930.0,-6.35,-33.21,-32.85,0,*69
1487613952.01,1668,13.19,72932.0,-6.37,-33.37,-33.03,0,*6C
1487613953.22,1669,13.19,72928.0,-6.35,-33.37,-33.15,0,*68
1487613954.42,1670,13.19,72926.3,-6.35,-33.55,-33.15,0,*64
1487613955.66,1671,13.19,72928.8,-6.37,-33.61,-33.37,0,*60
1487613956.89,1672,13.19,72924.5,-6.35,-33.67,-33.31,0,*61
1487613958.14,1673,13.19,72920.5,-6.37,-33.77,-33.37,0,*65
1487613959.39,1674,13.19,72930.3,-6.37,-33.89,-33.37,0,*63
1487613960.62,1675,13.19,72934.3,-6.35,-33.83,-33.31,0,*6C
1487613961.9,1676,13.19,72930.0,-6.37,-33.77,-33.43,0,*63
1487613963.14,1677,13.19,72928.3,-6.35,-33.73,-33.37,0,*67
1487613964.41,1678,13.19,72928.0,-6.37,-33.61,-33.27,0,*68
1487613965.66,1679,13.19,72930.5,-6.37,-33.61,-33.37,0,*68
1487613966.93,1680,13.19,72934.3,-6.37,-33.61,-33.27,0,*6F
1487613968.18,1681,13.19,72928.3,-6.37,-33.89,-33.37,0,*69
1487613969.4,1682,13.19,72934.8,-6.39,-33.95,-33.61,0,*6A
1487613970.64,1683,13.19,72934.0,-6.39,-33.83,-33.43,0,*6C
1487613971.91,1684,13.19,72930.5,-6.41,-33.31,-32.97,0,*65
1487613973.17,1685,13.19,72926.8,-6.39,-33.49,-33.27,0,*6E
1487613974.4,1686,13.19,72926.5,-6.39,-33.49,-33.15,0,*6C
1487613975.63,1687,13.19,72916.8,-6.39,-33.49,-33.15,0,*6D
1487613976.88,1688,13.19,72918.5,-6.37,-33.21,-32.85,0,*6A
1487613978.13,1689,13.19,72918.0,-6.39,-33.43,-33.09,0,*64
1487613979.39,1690,13.19,72918.5,-6.39,-33.31,-33.09,0,*69
1487613980.67,1691,13.19,72920.3,-6.41,-33.31,-32.85,0,*62
1487613981.92,1692,13.19,72914.3,-6.41,-33.15,-32.85,0,*67
1487613983.15,1693,13.19,72906.8,-6.39,-33.09,-32.69,0,*66
1487613984.38,1694,13.19,72908.5,-6.39,-33.27,-32.91,0,*6A
1487613985.65,1695,13.19,72914.8,-6.37,-33.09,-32.79,0,*6F
1487613986.85,1696,13.19,72904.5,-6.39,-32.91,-32.57,0,*6E
1487613988.07,1697,13.19,72912.3,-6.37,-33.03,-32.69,0,*66
1487613989.3,1698,13.19,72906.5,-6.35,-33.15,-32.85,0,*6E
1487613990.57,1699,13.19,72906.8,-6.37,-33.43,-33.09,0,*6B
1487613991.83,1700,13.19,72910.5,-6.37,-33.37,-33.09,0,*69
1487613993.05,1701,13.19,72916.3,-6.39,-33.27,-32.91,0,*67
1487613994.31,1702,13.19,72914.8,-6.35,-32.97,-32.75,0,*68
1487613995.58,1703,13.19,72902.0,-6.37,-32.85,-32.63,0,*6F
1487613996.84,1704,13.19,72902.8,-6.35,-32.79,-32.63,0,*69
1487613998.04,1705,13.19,72922.3,-6.35,-32.91,-32.69,0,*64
1487613999.32,1706,13.19,72932.3,-6.37,-33.09,-32.79,0,*64
1487614000.6,1707,13.19,72934.0,-6.37,-33.09,-32.85,0,*66
1487614001.82,1708,13.19,72924.8,-6.35,-33.21,-32.97,0,*62
1487614003.07,1709,13.19,72922.8,-6.35,-33.31,-32.97,0,*62
1487614004.3,1710,13.19,72924.5,-6.37,-33.37,-33.03,0,*62
1487614005.52,1711,13.19,72928.0,-6.37,-33.37,-33.21,0,*63
1487614006.73,1712,13.19,72934.8,-6.35,-33.37,-33.15,0,*65
1487614007.95,1713,13.19,72934.8,-6.37,-33.55,-33.21,0,*65
1487614009.17,1714,13.19,72926.8,-6.37,-32.91,-32.69,0,*66
1487614010.42,1715,13.19,72918.8,-6.37,-33.03,-32.79,0,*6C
1487614011.65,1716,13.19,72922.8,-6.37,-33.21,-32.91,0,*69
1487614012.87,1717,13.19,72924.3,-6.37,-33.37,-33.03,0,*65
1487614014.1,1718,13.19,72926.0,-6.37,-33.37,-33.21,0,*6A
1487614015.33,1719,13.19,72926.5,-6.35,-33.49,-33.15,0,*67
1487614016.55,1720,13.19,72930.3,-6.37,-33.55,-33.37,0,*62
1487614017.8,1721,13.19,72934.5,-6.37,-33.61,-33.37,0,*64
1487614019.05,1722,13.13,72930.0,-6.37,-33.61,-33.37,0,*67
1487614020.33,1723,13.19,72932.3,-6.37,-33.73,-33.43,0,*66
1487614021.56,1724,13.19,72934.8,-6.37,-33.55,-33.37,0,*66
1487614022.81,1725,13.19,72932.3,-6.37,-33.55,-33.27,0,*66
1487614024.06,1726,13.19,72928.8,-6.39,-33.61,-33.43,0,*6E
1487614025.29,1727,13.19,72930.3,-6.39,-33.67,-33.43,0,*69
1487614026.53,1728,13.19,72924.0,-6.39,-33.67,-33.43,0,*66
1487614027.78,1729,13.19,72922.0,-6.39,-33.61,-33.43,0,*61
1487614029.03,1730,13.19,72920.8,-6.39,-33.61,-33.31,0,*6C
1487614030.29,1731,13.19,72924.0,-6.39,-33.49,-33.43,0,*62
1487614031.54,1732,13.19,72924.0,-6.39,-33.61,-33.43,0,*6B
1487614032.83,1733,13.19,72928.0,-6.41,-33.77,-33.43,0,*62
1487614034.05,1734,13.13,72932.8,-6.39,-33.83,-33.61,0,*61
1487614035.27,1735,13.19,72938.8,-6.39,-33.95,-33.61,0,*67
1487614036.54,1736,13.19,72934.0,-6.41,-33.77,-33.61,0,*67
1487614037.8,1737,13.19,72936.8,-6.39,-33.77,-33.49,0,*63
1487614039.07,1738,13.19,72938.5,-6.41,-33.77,-33.49,0,*63
1487614040.34,1739,13.19,72944.5,-6.41,-33.77,-33.61,0,*68
1487614041.59,1740,13.19,72938.0,-6.41,-33.95,-33.61,0,*6A
1487614042.84,1741,13.19,72936.8,-6.41,-33.67,-33.49,0,*6C
1487614044.09,1742,13.19,72936.0,-6.41,-33.43,-33.15,0,*60
1487614045.36,1743,13.19,72934.8,-6.41,-33.61,-33.43,0,*62
1487614046.59,1744,13.19,72932.3,-6.43,-33.67,-33.49,0,*6B
1487614047.79,1745,13.19,72936.8,-6.43,-33.83,-33.55,0,*6D
1487614048.99,1746,13.19,72932.5,-6.43,-33.83,-33.55,0,*6E
1487614050.22,1747,13.19,72936.3,-6.43,-33.73,-33.67,0,*61
1487614051.5,1748,13.19,72938.0,-6.41,-33.77,-33.49,0,*64
1487614052.73,1749,13.19,72936.3,-6.43,-33.73,-33.67,0,*6F
1487614053.96,1750,13.19,72934.0,-6.45,-33.83,-33.67,0,*6E
1487614055.16,1751,13.13,72930.0,-6.43,-33.83,-33.67,0,*69
1487614056.42,1752,13.19,72930.0,-6.45,-34.01,-33.67,0,*61
1487614057.67,1753,13.19,72932.5,-6.43,-34.01,-33.73,0,*63
1487614058.92,1754,13.13,72932.3,-6.43,-33.89,-33.73,0,*63
1487614060.19,1755,13.19,72932.3,-6.45,-33.89,-33.73,0,*64
1487614061.47,1756,13.19,72934.5,-6.45,-34.01,-33.73,0,*60
1487614062.72,1757,13.19,72938.5,-6.45,-33.89,-33.83,0,*69
1487614063.96,1758,13.19,72934.0,-6.45,-33.89,-33.83,0,*66
1487614065.22,1759,13.19,72938.5,-6.45,-34.01,-33.83,0,*60
1487614066.44,1760,13.19,72936.8,-6.47,-34.01,-33.83,0,*68
1487614067.72,1761,13.19,72932.3,-6.45,-34.01,-33.89,0,*61
1487614068.98,1762,13.19,72938.8,-6.47,-34.01,-33.73,0,*65
1487614070.21,1763,13.13,72934.5,-6.51,-34.07,-33.77,0,*61
1487614071.43,1764,13.19,72936.3,-6.51,-33.95,-33.77,0,*6A
1487614072.66,1765,13.19,72938.3,-6.47,-33.89,-33.67,0,*60
1487614073.87,1766,13.19,72936.5,-6.47,-33.67,-33.37,0,*66
1487614075.12,1767,13.19,72936.5,-6.51,-33.27,-33.09,0,*69
1487614076.35,1768,13.19,72932.8,-6.51,-33.09,-33.03,0,*60
1487614077.55,1769,13.19,72928.5,-6.47,-33.21,-33.15,0,*6B
1487614078.81,1770,13.19,72930.3,-6.47,-32.97,-32.75,0,*68
1487614080.02,1771,13.13,72922.5,-6.51,-32.69,-32.35,0,*6B
1487614081.27,1772,13.13,72920.0,-6.47,-32.45,-32.45,0,*66
1487614082.52,1773,13.13,72918.0,-6.47,-32.97,-32.79,0,*67
1487614083.76,1774,13.19,72914.0,-6.45,-32.97,-32.57,0,*6E
1487614085.05,1775,13.19,72922.5,-6.45,-32.79,-32.75,0,*6F
1487614086.27,1776,13.13,72924.0,-6.43,-32.91,-32.63,0,*6B
1487614087.52,1777,13.19,72924.3,-6.45,-33.03,-32.97,0,*6D
1487614088.74,1778,13.13,72924.5,-6.45,-33.15,-33.03,0,*69
1487614089.94,1779,13.19,72924.8,-6.43,-33.15,-32.91,0,*64
1487614091.13,1780,13.19,72928.8,-6.43,-33.15,-33.15,0,*6F
1487614092.33,1781,13.19,72934.3,-6.43,-33.21,-33.03,0,*6E
1487614093.58,1782,13.13,72930.0,-6.45,-32.91,-32.79,0,*6D
1487614094.78,1783,13.13,72920.5,-6.43,-33.15,-33.03,0,*6B
1487614096.05,1784,13.13,72910.0,-6.45,-33.31,-33.31,0,*6D
1487614097.31,1785,13.13,72904.3,-6.43,-33.49,-33.49,0,*6A
1487614098.54,1786,13.19,72914.8,-6.43,-33.49,-33.37,0,*60
1487614099.79,1787,13.13,72914.0,-6.43,-33.49,-33.49,0,*68
1487614101.02,1788,13.13,72912.0,-6.43,-33.49,-33.37,0,*6E
1487614102.23,1789,13.13,72916.0,-6.43,-33.37,-33.37,0,*66
1487614103.46,1790,13.19,72918.8,-6.43,-33.31,-33.21,0,*6F
1487614104.71,1791,13.19,72916.5,-6.45,-33.31,-33.37,0,*6F